AIB66A EDHI-EDHI

Flight info

Callsign AIB66A
Flight time N/A
Altitude 23000
Route AMLUH DCT RAMAR Z998 NUSGU/N0456F370 Z998 PITEN L619 PODUS DCT NONSA/N0457F280 Q800 ROSOK T906 RARUP
Aircraft A320/M-SDE3FGHIRWY/LB1

Departure

Time 2026-04-22 14:19
Airport Hamburg-Finkenwerder Airport (EDHI)

Arrival

Time N/A
Airport Hamburg-Finkenwerder Airport (EDHI)
Time Latitude Longitude Altitude Speed Heading
2026-04-22 14:04 53.53778 9.82472 24 ft 0 kts 14°
2026-04-22 14:11 53.53771 9.82469 24 ft 4 kts 15°
2026-04-22 14:11 53.53745 9.82455 24 ft 4 kts 22°
2026-04-22 14:11 53.53722 9.82435 24 ft 4 kts 41°
2026-04-22 14:11 53.53710 9.82404 26 ft 3 kts 99°
2026-04-22 14:12 53.53710 9.82398 25 ft 1 kts 105°
2026-04-22 14:13 53.53708 9.82413 26 ft 5 kts 105°
2026-04-22 14:14 53.53697 9.82474 24 ft 5 kts 106°
2026-04-22 14:14 53.53688 9.82535 24 ft 6 kts 105°
2026-04-22 14:14 53.53665 9.82630 28 ft 8 kts 123°
2026-04-22 14:14 53.53628 9.82701 24 ft 8 kts 138°
2026-04-22 14:15 53.53598 9.82744 26 ft 5 kts 141°
2026-04-22 14:15 53.53554 9.82799 27 ft 15 kts 144°
2026-04-22 14:15 53.53449 9.82944 24 ft 20 kts 141°
2026-04-22 14:15 53.53348 9.83099 26 ft 19 kts 110°
2026-04-22 14:16 53.53408 9.83284 26 ft 22 kts 50°
2026-04-22 14:16 53.53531 9.83547 22 ft 34 kts 51°
2026-04-22 14:16 53.53686 9.83873 22 ft 37 kts 52°
2026-04-22 14:16 53.53850 9.84219 24 ft 39 kts 52°
2026-04-22 14:17 53.54019 9.84582 23 ft 36 kts 52°
2026-04-22 14:17 53.54151 9.84860 23 ft 29 kts 52°
2026-04-22 14:17 53.54243 9.84967 23 ft 9 kts
2026-04-22 14:17 53.54291 9.85054 26 ft 15 kts 84°
2026-04-22 14:18 53.54255 9.85077 25 ft 5 kts 215°
2026-04-22 14:18 53.54172 9.84900 23 ft 53 kts 232°
2026-04-22 14:18 53.53763 9.84038 23 ft 130 kts 232°
2026-04-22 14:18 53.53113 9.82653 437 ft 155 kts 235°
2026-04-22 14:19 53.52443 9.81229 1434 ft 157 kts 236°
2026-04-22 14:19 53.51725 9.79696 2072 ft 178 kts 236°
2026-04-22 14:19 53.50908 9.77959 2699 ft 201 kts 234°
2026-04-22 14:19 53.49990 9.76020 3303 ft 222 kts 234°
2026-04-22 14:20 53.47669 9.72415 5307 ft 244 kts 195°
2026-04-22 14:20 53.45963 9.72421 6341 ft 251 kts 167°
2026-04-22 14:20 53.44290 9.73272 7434 ft 253 kts 158°
2026-04-22 14:21 53.41362 9.76344 9785 ft 241 kts 123°
2026-04-22 14:21 53.40565 9.78699 11079 ft 228 kts 107°
2026-04-22 14:22 53.40349 9.83802 12955 ft 223 kts 81°
2026-04-22 14:22 53.40497 9.86398 13893 ft 225 kts 81°
2026-04-22 14:22 53.40792 9.91690 15573 ft 230 kts 81°
2026-04-22 14:23 53.40939 9.94378 16428 ft 233 kts 81°
2026-04-22 14:23 53.41086 9.97108 17211 ft 241 kts 81°
2026-04-22 14:23 53.41247 10.00040 17600 ft 265 kts 81°
2026-04-22 14:23 53.41420 10.03251 17968 ft 288 kts 82°
2026-04-22 14:24 53.41605 10.06740 18295 ft 312 kts 82°
2026-04-22 14:24 53.41802 10.10498 18568 ft 335 kts 82°
2026-04-22 14:24 53.42009 10.14515 18758 ft 358 kts 83°
2026-04-22 14:24 53.42228 10.18811 18925 ft 379 kts 83°
2026-04-22 14:25 53.42456 10.23286 19390 ft 388 kts 83°
2026-04-22 14:25 53.42782 10.27805 20025 ft 391 kts 77°
2026-04-22 14:25 53.43563 10.32173 20676 ft 393 kts 66°
2026-04-22 14:25 53.44814 10.36249 21330 ft 395 kts 56°
2026-04-22 14:26 53.46429 10.39916 21957 ft 397 kts 52°
2026-04-22 14:26 53.48131 10.43586 22586 ft 401 kts 52°
2026-04-22 14:26 53.49852 10.47299 23208 ft 404 kts 52°
2026-04-22 14:26 53.51586 10.51050 23804 ft 408 kts 52°
2026-04-22 14:27 53.53325 10.54838 24322 ft 411 kts 52°
2026-04-22 14:27 53.55075 10.58657 24815 ft 414 kts 53°
2026-04-22 14:27 53.56833 10.62509 25323 ft 416 kts 53°
2026-04-22 14:27 53.58602 10.66388 25814 ft 419 kts 53°
2026-04-22 14:28 53.60377 10.70285 26300 ft 421 kts 53°
2026-04-22 14:28 53.62168 10.74220 26773 ft 424 kts 53°
2026-04-22 14:28 53.63943 10.78201 27234 ft 426 kts 57°
2026-04-22 14:28 53.65257 10.82675 27653 ft 428 kts 72°
2026-04-22 14:29 53.65815 10.87604 28076 ft 431 kts 86°
2026-04-22 14:29 53.65574 10.92653 28502 ft 435 kts 101°
2026-04-22 14:29 53.64532 10.97460 28929 ft 441 kts 116°
2026-04-22 14:29 53.62736 11.01672 29326 ft 447 kts 131°
2026-04-22 14:30 53.60289 11.04961 29727 ft 455 kts 145°
2026-04-22 14:30 53.57590 11.07717 30271 ft 453 kts 146°
2026-04-22 14:30 53.54889 11.10444 30804 ft 451 kts 146°
2026-04-22 14:30 53.52238 11.13115 31289 ft 450 kts 146°
2026-04-22 14:31 53.49560 11.15813 31770 ft 448 kts 145°
2026-04-22 14:31 53.46891 11.18502 32246 ft 447 kts 145°
2026-04-22 14:31 53.44226 11.21191 32736 ft 446 kts 145°
2026-04-22 14:31 53.41571 11.23873 33203 ft 445 kts 144°
2026-04-22 14:32 53.38924 11.26550 33670 ft 444 kts 144°
2026-04-22 14:32 53.36269 11.29227 34146 ft 444 kts 144°
2026-04-22 14:32 53.33626 11.31885 34568 ft 443 kts 144°
2026-04-22 14:32 53.30983 11.34533 34930 ft 444 kts 144°
2026-04-22 14:33 53.28322 11.37196 35280 ft 445 kts 144°
2026-04-22 14:33 53.25817 11.40186 35604 ft 441 kts 135°
2026-04-22 14:33 53.23552 11.43629 35920 ft 440 kts 133°
2026-04-22 14:33 53.21301 11.47102 36239 ft 442 kts 133°
2026-04-22 14:34 53.19041 11.50574 36545 ft 443 kts 133°
2026-04-22 14:34 53.16768 11.54054 36859 ft 444 kts 134°
2026-04-22 14:34 53.14503 11.57518 37158 ft 445 kts 134°
2026-04-22 14:34 53.12213 11.61016 37454 ft 446 kts 134°
2026-04-22 14:35 53.09922 11.64512 37750 ft 447 kts 134°
2026-04-22 14:35 53.07630 11.68000 38037 ft 448 kts 134°
2026-04-22 14:35 53.06105 11.70322 38228 ft 448 kts 134°
2026-04-22 14:35 53.03820 11.73844 38514 ft 448 kts 131°
2026-04-22 14:36 53.01263 11.79180 38874 ft 444 kts 118°
2026-04-22 14:36 52.99880 11.83729 39101 ft 441 kts 108°
2026-04-22 14:36 52.99007 11.88578 39270 ft 439 kts 98°
2026-04-22 14:37 52.98581 11.96991 39330 ft 436 kts 90°
2026-04-22 14:37 52.98329 12.07058 39324 ft 436 kts 90°
2026-04-22 14:38 52.98032 12.17108 39323 ft 436 kts 91°
2026-04-22 14:38 52.97722 12.27095 39318 ft 436 kts 91°
2026-04-22 14:39 52.97414 12.37151 39318 ft 436 kts 91°
2026-04-22 14:39 52.97109 12.47200 39323 ft 436 kts 91°
2026-04-22 14:40 52.96627 12.62284 39322 ft 436 kts 91°
2026-04-22 14:40 52.96288 12.72343 39319 ft 436 kts 91°
2026-04-22 14:41 52.96117 12.77302 39301 ft 424 kts 91°
2026-04-22 14:41 52.95947 12.82101 39305 ft 409 kts 91°
2026-04-22 14:41 52.95522 12.86682 39296 ft 398 kts 104°
2026-04-22 14:41 52.94398 12.90796 39299 ft 390 kts 120°
2026-04-22 14:42 52.92644 12.94202 39300 ft 391 kts 136°
2026-04-22 14:42 52.90360 12.96683 39297 ft 397 kts 152°
2026-04-22 14:42 52.87694 12.97997 39298 ft 404 kts 170°
2026-04-22 14:42 52.84866 12.97980 39298 ft 411 kts 187°
2026-04-22 14:43 52.82128 12.96580 39299 ft 416 kts 206°
2026-04-22 14:43 52.79733 12.93881 39301 ft 419 kts 224°
2026-04-22 14:43 52.77924 12.90133 39301 ft 419 kts 242°
2026-04-22 14:43 52.76872 12.85643 39258 ft 423 kts 259°
2026-04-22 14:44 52.76595 12.80826 38304 ft 434 kts 277°
2026-04-22 14:44 52.77202 12.75897 36945 ft 445 kts 295°
2026-04-22 14:44 52.78694 12.71387 35617 ft 453 kts 312°
2026-04-22 14:44 52.80914 12.67699 34443 ft 455 kts 328°
2026-04-22 14:45 52.83608 12.65162 33285 ft 451 kts 344°
2026-04-22 14:45 52.86583 12.63852 31759 ft 438 kts 358°
2026-04-22 14:45 52.89592 12.63948 29906 ft 432 kts 14°
2026-04-22 14:45 52.92455 12.65353 27764 ft 428 kts 27°
2026-04-22 14:46 52.94991 12.67919 25850 ft 433 kts 41°
2026-04-22 14:46 52.97032 12.71558 25171 ft 423 kts 56°
2026-04-22 14:46 52.98449 12.75692 24990 ft 403 kts 68°
2026-04-22 14:46 52.99204 12.79999 24824 ft 374 kts 81°
2026-04-22 14:47 52.99318 12.84139 24652 ft 347 kts 92°
2026-04-22 14:47 52.98923 12.87989 24147 ft 335 kts 104°
2026-04-22 14:47 52.98062 12.91552 23366 ft 332 kts 115°
2026-04-22 14:47 52.96963 12.94921 22605 ft 332 kts 115°
2026-04-22 14:48 52.95875 12.98286 22094 ft 329 kts 115°
2026-04-22 14:48 52.94807 13.01615 21584 ft 325 kts 115°
2026-04-22 14:48 52.93756 13.04911 21019 ft 323 kts 115°
2026-04-22 14:48 52.92711 13.08192 20445 ft 321 kts 115°
2026-04-22 14:49 52.91671 13.11451 19808 ft 319 kts 115°
2026-04-22 14:49 52.90633 13.14692 19187 ft 317 kts 115°
2026-04-22 14:49 52.89601 13.17911 18574 ft 316 kts 115°
2026-04-22 14:49 52.88583 13.21077 18015 ft 315 kts 115°
2026-04-22 14:50 52.87541 13.24310 17443 ft 313 kts 115°
2026-04-22 14:50 52.86533 13.27434 16888 ft 311 kts 115°
2026-04-22 14:50 52.85514 13.30592 16298 ft 309 kts 115°
2026-04-22 14:50 52.84504 13.33716 15659 ft 308 kts 115°
2026-04-22 14:51 52.83496 13.36822 15033 ft 306 kts 115°
2026-04-22 14:51 52.82492 13.39910 14413 ft 304 kts 115°
2026-04-22 14:51 52.81491 13.42990 13771 ft 303 kts 115°
2026-04-22 14:51 52.80494 13.46063 13221 ft 303 kts 115°
2026-04-22 14:52 52.79500 13.49123 12735 ft 301 kts 115°
2026-04-22 14:52 52.78513 13.52153 12228 ft 299 kts 115°
2026-04-22 14:52 52.77528 13.55166 11717 ft 297 kts 115°
2026-04-22 14:52 52.76550 13.58163 11210 ft 296 kts 114°
2026-04-22 14:53 52.75575 13.61148 10709 ft 295 kts 114°
2026-04-22 14:53 52.74614 13.64079 10232 ft 294 kts 114°
2026-04-22 14:53 52.73644 13.67036 9693 ft 292 kts 114°
2026-04-22 14:53 52.72682 13.69967 9174 ft 289 kts 115°
2026-04-22 14:54 52.71425 13.72549 8656 ft 293 kts 139°
2026-04-22 14:54 52.69656 13.74218 8163 ft 293 kts 152°
2026-04-22 14:54 52.67833 13.75683 7658 ft 291 kts 152°
2026-04-22 14:54 52.66020 13.77126 7188 ft 289 kts 153°
2026-04-22 14:55 52.64237 13.78537 6950 ft 277 kts 153°
2026-04-22 14:55 52.62542 13.79873 6787 ft 264 kts 153°
2026-04-22 14:55 52.60918 13.81152 6560 ft 257 kts 153°
2026-04-22 14:55 52.59296 13.82426 6315 ft 255 kts 153°
2026-04-22 14:56 52.57695 13.83683 6080 ft 255 kts 153°
2026-04-22 14:56 52.56093 13.84940 5842 ft 255 kts 153°
2026-04-22 14:56 52.54498 13.86201 5614 ft 254 kts 154°
2026-04-22 14:56 52.52914 13.87456 5377 ft 253 kts 154°
2026-04-22 14:57 52.51294 13.88535 5053 ft 256 kts 168°
2026-04-22 14:57 52.49557 13.88762 4917 ft 248 kts 187°
2026-04-22 14:57 52.47901 13.88101 4779 ft 242 kts 206°
2026-04-22 14:57 52.46489 13.86715 4569 ft 232 kts 224°
2026-04-22 14:58 52.45429 13.84796 4315 ft 224 kts 241°
2026-04-22 14:58 52.44762 13.82527 4028 ft 220 kts 253°
2026-04-22 14:58 52.44217 13.80185 3741 ft 219 kts 253°
2026-04-22 14:58 52.43681 13.77888 3445 ft 211 kts 253°
2026-04-22 14:59 52.43167 13.75691 3164 ft 202 kts 253°
2026-04-22 14:59 52.42662 13.73524 2888 ft 208 kts 253°
2026-04-22 14:59 52.42144 13.71312 2601 ft 209 kts 253°
2026-04-22 14:59 52.41627 13.69111 2315 ft 200 kts 254°
2026-04-22 15:00 52.41149 13.67085 2071 ft 183 kts 254°
2026-04-22 15:00 52.40701 13.65175 1805 ft 176 kts 255°
2026-04-22 15:00 52.40271 13.63327 1573 ft 172 kts 253°
2026-04-22 15:00 52.39859 13.61586 1337 ft 155 kts 255°
2026-04-22 15:01 52.39493 13.60031 1175 ft 141 kts 257°
2026-04-22 15:01 52.39153 13.58609 1005 ft 133 kts 257°
2026-04-22 15:01 52.38827 13.57228 784 ft 127 kts 256°
2026-04-22 15:01 52.38512 13.55889 588 ft 123 kts 257°
2026-04-22 15:02 52.38204 13.54581 427 ft 123 kts 258°
2026-04-22 15:02 52.37905 13.53285 275 ft 121 kts 258°
2026-04-22 15:02 52.37600 13.52006 162 ft 118 kts 256°
2026-04-22 15:02 52.37378 13.51054 160 ft 58 kts 249°
2026-04-22 15:03 52.37247 13.50504 157 ft 32 kts 250°
2026-04-22 15:03 52.37185 13.50162 158 ft 31 kts 261°
2026-04-22 15:03 52.37205 13.49820 159 ft 29 kts 284°
2026-04-22 15:03 52.37281 13.49553 166 ft 21 kts 334°
2026-04-22 15:04 52.37410 13.49613 168 ft 21 kts 52°
2026-04-22 15:04 52.37495 13.49828 167 ft 24 kts 57°
2026-04-22 15:04 52.37593 13.50083 161 ft 29 kts 57°
2026-04-22 15:04 52.37697 13.50347 156 ft 27 kts 57°
2026-04-22 15:05 52.37803 13.50617 153 ft 27 kts 59°
2026-04-22 15:05 52.37910 13.50890 153 ft 29 kts 56°
2026-04-22 15:05 52.38006 13.51143 154 ft 25 kts 54°
2026-04-22 15:05 52.38105 13.51398 152 ft 26 kts 54°
2026-04-22 15:06 52.38193 13.51500 151 ft 16 kts
2026-04-22 15:06 52.38236 13.51462 152 ft 5 kts 286°
2026-04-22 15:06 52.38239 13.51399 153 ft 6 kts 277°
2026-04-22 15:06 52.38241 13.51384 153 ft 0 kts 277°